metlocid,date_time,avg_par,std_par,min_par,max_par,n_par,avg_swradin,std_swradin,min_swradin,max_swradin,n_swradin,avg_swradout,std_swradout,min_swradout,max_swradout,n_swradout,n_comments
VIAM,11/1/95,672.7408512,392.2396707,85.9,1495.7,306,340.8107845,205.9083661,22.1,775,306,98.50261438,55.45268015,6.6,210.2,306,0
VIAM,12/1/95,620.9346093,381.0546704,83.9,1812.9,1488,307.94039,197.8425306,24.9,960,1488,63.29744621,39.89846989,5.5,175.4,1488,0
VIAM,1/1/96,535.7979171,348.6358561,47.4,1489.9,1488,268.0764784,181.8945146,18.7,784,1488,48.86028219,32.30775886,3.3,136.7,1488,0
VIAM,2/1/96,357.5824712,312.2621955,0,1153.8,1392,184.6170975,163.5171823,0,588.4,1392,44.49439655,50.04839141,0,331,1392,0
VIAM,3/1/96,122.4495969,166.4749074,0,755.4,1488,61.99482523,85.56780061,0,399.2,1488,36.37392469,59.1482848,0,252,1488,468
VIAM,4/1/96,11.01687501,26.68570812,0,200.5,1440,4.604027774,12.69924664,0,110.7,1440,1.063263889,2.955599941,0,39.5,1440,927
VIAM,5/1/96,0.023723118,0.20464113,0,3,1488,0.014583334,0.113907023,0,1.6,1488,0.002755376,0.023464305,0,0.3,1488,1449
VIAM,6/1/96,0,0,0,0,1440,0,0,0,0,1440,0,0,0,0,1440,1440
VIAM,7/1/96,0,0,0,0,1488,0,0,0,0,1488,0,0,0,0,1488,1488
VIAM,8/1/96,2.794489247,10.50651108,0,98.1,1488,1.343413977,5.223966773,0,54.7,1488,0.680376348,2.138091947,0,21.4,1488,1173
VIAM,9/1/96,73.05000004,123.8805524,0,570.2,1440,36.5040278,65.9709541,0,272.4,1440,16.05923612,27.89009202,0,110.2,1440,649
VIAM,10/1/96,288.0726967,285.6698325,0,984.9,1487,147.7950233,148.7367741,0,494.9,1487,78.74485529,84.22767069,0,313.9,1487,124
VIAM,11/1/96,522.7674919,339.488003,37.4,1471,2464,270.65418,179.4683327,12,764,2464,93.69411536,71.96213472,4.5,484.8,2464,0
VIAM,12/1/96,594.4729166,345.9699273,63.2,1495.7,2976,300.5130041,178.0527828,22.6,785,2976,56.07251341,33.19484749,3.9,139.5,2976,0
VIAM,1/1/97,497.6988572,352.4761011,41.9,1796.9,2976,250.9354882,183.5951251,17,883,2970,45.54788302,33.26080833,2.9,166,2976,6
VIAM,2/1/97,356.7796879,316.7337262,0,1152,2688,189.6499627,170.0616713,0,604.1,2688,36.88470982,32.32326978,0,149.9,2688,0
VIAM,3/1/97,108.4113577,164.9686925,0,729.8,2976,55.91065192,90.0160914,0,369.7,2976,35.78417339,52.80589091,0,269.6,2976,937
VIAM,4/1/97,9.862013896,22.81418172,0,206.8,2880,4.135902774,10.67083307,0,115.8,2880,2.762951389,9.084996696,0,97.3,2880,1843
VIAM,5/1/97,0.016431452,0.13895952,0,2.3,2976,0.011391129,0.085962356,0,1.2,2976,0.009173387,0.070148861,0,1.1,2976,2891
VIAM,6/1/97,0,0,0,0,2880,0,0,0,0,2880,3.47E-05,0.00186339,0,0.1,2880,2880
VIAM,7/1/97,0,0,0,0,2976,0,0,0,0,2976,0,0,0,0,2976,2976
VIAM,8/1/97,2.831115587,9.168041641,0,64.8,2976,1.150604838,3.686554215,0,27.9,2976,0.407291668,1.320704142,0,9.8,2976,2355
VIAM,9/1/97,52.58788191,97.031465,0,634.9,2880,25.35736112,50.77936699,0,351.5,2880,24.48781249,43.49725809,0,202.4,2880,1324
VIAM,10/1/97,263.187836,269.8209861,0,997.8,2976,132.1524193,138.7301094,0,503,2976,42.2343078,45.64135217,0,236.8,2976,275
VIAM,11/1/97,439.9597781,328.8341895,16.5,1322.4,2250,234.4235271,176.9308749,6.5,698.8,2563,45.42528287,33.79120962,1.2,124.8,2563,0
VIAM,12/1/97,,,,,0,283.4520164,179.2302167,18.9,779,1488,55.1134408,34.36655353,2.9,200.6,1488,0
VIAM,1/1/98,509.0020523,347.3820894,34.3,1537.6,1462,248.2122977,178.5352614,15.6,782,1488,47.15712361,35.11473609,2.6,254.2,1488,0
VIAM,2/1/98,315.1748508,292.0006761,0,1240.2,1344,132.7552082,137.4592434,0.1,622.4,1344,76.34561022,97.0432858,0.1,392.2,1344,0
VIAM,3/1/98,145.8659946,198.0237111,0,751.1,1488,74.43353509,104.1740881,0,372.6,1488,55.29220433,73.15972757,0,252.3,1488,0
VIAM,4/1/98,6.23041667,14.99370607,0,129.2,1440,2.281180558,6.539129029,0,64.7,1440,4.784722228,14.66537535,0,154.9,1440,0
VIAM,5/1/98,0.014045699,0.135685376,0,2,1488,0.010215054,0.073002342,0,0.8,1488,0.007325269,0.046895229,0,0.6,1488,0
VIAM,6/1/98,0,0,0,0,1440,0,0,0,0,1440,0,0,0,0,1440,0
VIAM,7/1/98,0,0,0,0,1488,0,0,0,0,1488,0,0,0,0,1488,0
VIAM,8/1/98,1.807997315,7.562808323,0,70.2,1488,0.741465053,3.054317897,0,31.2,1488,1.037768823,3.188363343,0,25.1,1488,0
VIAM,9/1/98,40.43374993,73.0405379,0,532.5,1440,18.5019444,35.31394559,0,275.3,1440,31.28909722,54.15433651,0,260.4,1440,0
VIAM,10/1/98,279.1728494,282.6699503,0,1004.4,1488,136.7175403,142.6018071,0,491.9,1488,96.54966406,94.36746086,0,307.1,1488,0
VIAM,11/1/98,567.2204167,371.9513063,34.9,1331.3,1440,284.0161803,190.2918359,10.3,666.4,1440,160.4381945,105.4302884,6,393.1,1440,0
VIAM,12/1/98,701.8585358,386.569501,69.4,1652.6,1488,352.1322584,194.024722,21.4,837,1488,86.78655911,49.45508391,5.9,254.2,1488,0
VIAM,1/1/99,485.8655239,328.4618236,41,1406,1488,239.6299061,168.0356057,18.7,711,1488,43.84966396,30.15039078,2.8,124.4,1488,0
VIAM,2/1/99,356.2209824,313.5449163,0,1234.3,1344,181.4979912,164.5015711,0.2,630.8,1344,65.48712792,72.27464789,0.2,351.3,1344,174
VIAM,3/1/99,138.1106183,186.6577157,0,853.2,1488,66.15625006,94.07752369,0,538.7,1488,65.24401884,87.69167972,0,358.1,1488,920
VIAM,4/1/99,3.82263889,8.887935705,0,50.3,1440,1.228194449,3.089415159,0,19,1440,5.277430558,12.82549627,0,77.3,1440,1440
VIAM,5/1/99,0,0,0,0,1488,0,0,0,0,1488,0.01780914,0.110565149,0,1.3,1488,1488
VIAM,6/1/99,0,0,0,0,1440,0,0,0,0,1440,0,0,0,0,1440,1440
VIAM,7/1/99,0,0,0,0,1488,0,0,0,0,1488,0,0,0,0,1488,1488
VIAM,8/1/99,1.600403228,5.159101476,0,33.5,1488,0.622110215,1.83308578,0,12.3,1488,1.07076613,3.195991766,0,21.2,1488,1442
VIAM,9/1/99,51.86736106,95.54144302,0,575.9,1440,24.0138194,47.1675985,0,281.4,1440,22.58715284,40.36593174,0,231.7,1440,1073
VIAM,10/1/99,289.3682122,279.193096,0,967.5,1488,144.606317,142.6513849,0,469,1488,54.27305101,58.5919051,0,273.8,1488,144
VIAM,11/1/99,502.9187505,345.0849072,10.7,1443.4,1440,249.1406948,174.2853355,3.2,724,1440,51.25631949,35.3002742,0.6,135.4,1440,1
VIAM,12/1/99,602.8723778,356.5693233,32.5,1616.8,1488,296.0468414,177.7553704,13.2,825,1488,56.55887092,34.01866961,2.4,183.6,1488,0
VIAM,1/1/00,555.073383,357.1631652,67.7,1663.1,1747,272.2334479,182.8995806,17.9,834,1746,51.15206177,33.15726885,3.2,151,1746,1
VIAM,2/1/00,402.1096266,354.4352365,0.1,1309.6,2784,201.0538792,181.8352188,0.1,659.4,2784,38.08548848,32.9024645,0,116.8,2784,3
VIAM,3/1/00,126.2300405,192.3394389,0,836.1,2976,64.81313852,101.3492422,0,421,2976,24.27721775,37.30912241,0,198,2976,1493
VIAM,4/1/00,11.35798613,29.40404263,0,260.3,2880,5.087847232,14.44238027,0,166.6,2880,3.264131941,7.562143254,0,83.4,2880,2434
VIAM,5/1/00,0.010853495,0.101284909,0,1.7,2976,0.003629032,0.029906333,0,0.4,2976,0.010450269,0.067325866,0,0.8,2976,2971
VIAM,6/1/00,0,0,0,0,2880,0,0,0,0,2880,6.94E-05,0.002634774,0,0.1,2880,2880
VIAM,7/1/00,0,0,0,0,2976,0,0,0,0,2976,0.000134409,0.003664329,0,0.1,2976,2976
VIAM,8/1/00,3.63857527,11.41510768,0,89.8,2976,1.525772851,4.559462347,0,47.3,2976,0.893481184,2.315123357,0,19.2,2976,2545
VIAM,9/1/00,78.25249992,132.1673627,0,633.6,2880,40.46086809,72.90980318,0,317,2880,15.32267362,28.28629374,0,153.2,2880,1349
VIAM,10/1/00,329.1102823,322.4565213,0,1195.9,2976,165.4981183,164.2716399,0,620.6,2976,78.3871975,80.27841876,0,306.5,2976,274
VIAM,11/1/00,539.3405209,384.1146473,30.8,1555.2,2880,270.2627778,200.0728699,11,786,2880,92.77406249,74.75170589,3.9,341,2880,11
VIAM,12/1/00,689.006418,389.7662097,69.1,1823.5,2976,346.2824936,203.0965525,24.5,964,2976,64.50460348,36.08530179,4.2,166.9,2976,4
VIAM,1/1/01,639.7907591,397.6986291,60.3,1803.7,2976,327.1754032,211.2162785,16.6,934,2976,61.01233198,37.54296547,2.9,167.9,2976,1
VIAM,2/1/01,384.1337796,325.3548456,0,1394.5,2688,203.1384672,178.0708577,0.1,752,2688,38.34955357,32.44151223,0,132.4,2688,0
VIAM,3/1/01,150.3518816,204.3016275,0,770.3,2976,83.55225135,114.0517453,0,393.2,2976,16.62577283,22.14890487,0,127.3,2976,1028
VIAM,4/1/01,8.225416669,25.21721974,0,278.1,2880,3.602152771,13.75769602,0,155.5,2880,3.206701392,8.32448526,0,70,2880,2530
VIAM,5/1/01,0.028461021,0.229503921,0,3.1,2976,0.014852151,0.098771505,0,1.1,2976,0.010483871,0.063067001,0,0.6,2976,2904
VIAM,6/1/01,0,0,0,0,2880,0,0,0,0,2880,0,0,0,0,2880,2878
VIAM,7/1/01,0,0,0,0,2976,0.000100806,0.00409836,0,0.2,2976,3.36E-05,0.001833089,0,0.1,2976,2972
VIAM,8/1/01,0.983635751,2.797085696,0,21.6,2976,0.473454301,1.273919761,0,10.8,2976,1.360383067,4.572178915,0,44.5,2976,2702
VIAM,9/1/01,71.06406262,138.0421688,0,714.7,2880,36.52427081,73.7893792,0,361.9,2880,27.62343746,47.61750043,0,224.2,2880,1896
VIAM,10/1/01,332.9219422,323.5763948,0,1159.6,2976,170.9746303,166.2542008,0,579.6,2976,60.60467069,59.47468911,0,238.6,2976,265
VIAM,11/1/01,583.4926039,390.1309675,38.4,1580.9,2880,297.3137845,205.0207412,12.4,818,2880,70.87451394,48.94876467,3.9,256.9,2880,3
VIAM,12/1/01,711.9539375,389.2598015,59.8,1773.4,2972,345.2160162,198.3196275,22.5,915,2972,69.23687748,36.19731547,3.9,173.9,2972,5
VIAM,1/1/02,589.3172825,389.9177811,38.1,1597.6,2974,283.7364581,199.6308298,15.5,807,2976,56.78514787,38.77603148,2.8,308.4,2976,2
VIAM,2/1/02,352.9271948,317.9224596,0,1196.9,2688,175.7326265,164.5263413,0.2,608.8,2688,35.31168155,30.78990947,0,110,2688,4
VIAM,3/1/02,121.2,173.230515,0,809.1,2976,63.68282925,93.45536273,0,417.4,2976,30.37281583,45.19918698,0,223.9,2976,1129
VIAM,4/1/02,4.553194444,11.38351413,0,98.1,2880,1.715416669,4.961161267,0,46.1,2880,4.586527776,12.75069764,0,107.2,2880,2880
VIAM,5/1/02,0.016858887,0.166901658,0,2.6,2948,0.011533243,0.073931411,0,1,2948,0.006546812,0.040874587,0,0.4,2948,2976
VIAM,6/1/02,0,0,0,0,2852,0.000771389,0.011210541,0,0.2,2852,0.000140252,0.003743059,0,0.1,2852,2880
VIAM,7/1/02,0,0,0,0,2976,0.001276882,0.014143893,0,0.2,2976,0.000403226,0.007322491,0,0.2,2976,2976
VIAM,8/1/02,2.295698926,7.763916222,0,51.4,2976,0.966129033,3.34479482,0,26.1,2976,0.839280916,2.58294719,0,20.8,2976,2976
VIAM,9/1/02,16.34531249,24.83014304,0,124.4,2880,7.102222213,11.40416986,0,68.1,2880,31.41687497,55.50199201,0,240.2,2880,2880
VIAM,10/1/02,157.2621976,246.0729284,0,1038.7,2976,71.39351471,121.6038597,0,511.9,2976,126.478797,123.0002828,0,451.9,2976,2154
VIAM,11/1/02,551.3677789,379.1049258,23.2,1480.3,2880,257.9744793,194.6305037,8.5,768,2880,219.2144791,148.1063081,6.9,587.7,2880,531
VIAM,12/1/02,650.4510758,370.5653506,38.6,1573.9,2976,322.258535,190.2002984,17.2,809,2976,181.1877351,114.9472293,9,543.6,2976,6
VIAM,1/1/03,528.6800741,366.3927823,23.5,1564.7,2976,259.5585688,187.4713659,9.2,807,2976,72.81307119,51.84001066,2.2,262.8,2976,0
VIAM,2/1/03,353.9777531,326.1705911,0.9,1353.8,2688,176.6331099,163.7803795,0.2,684.7,2688,42.79884673,38.39465033,0,151.4,2688,2
VIAM,3/1/03,124.0914652,166.8140803,0,731.3,2976,64.78121632,86.54200245,0,350.4,2976,45.13360214,60.53413421,0,271.3,2976,1520
VIAM,4/1/03,11.18031251,26.96952971,0,251,2880,5.082013884,13.78511874,0,144.8,2880,3.736597222,10.52171909,0,122.7,2880,1849
VIAM,5/1/03,0.018817204,0.122832447,0,0.9,2976,0.005577957,0.037337462,0,0.4,2976,0.012600807,0.084966569,0,1.2,2976,2627
VIAM,6/1/03,0,0,0,0,2880,0.000520833,0.008922863,0,0.2,2880,0,0,0,0,2880,2729
VIAM,7/1/03,0,0,0,0,2976,0.001075269,0.014855711,0,0.4,2976,3.36E-05,0.001833089,0,0.1,2976,2417
VIAM,8/1/03,2.416532253,8.489995417,0,60.2,2976,0.956048388,3.302095651,0,30.5,2976,0.655241935,1.850752126,0,13.7,2976,2272
VIAM,9/1/03,56.67680557,96.65452812,0,567.7,2880,27.76902776,50.67523745,0,284.2,2880,18.64458333,34.32198933,0,188.1,2880,975
VIAM,10/1/03,279.1834341,284.8224259,0,1082.2,2976,144.6187163,145.4196898,0,528.1,2976,76.98713034,77.63640523,0,264.5,2976,131
VIAM,11/1/03,504.3793057,344.9865282,23.2,1373.5,2880,250.2955903,170.1979463,9.2,689.2,2880,88.72270835,60.45117561,4,270.8,2880,8
VIAM,12/1/03,656.1313848,393.4303904,40.7,1668.8,2976,320.2925068,189.4874652,17.8,819,2976,65.52889787,36.13912798,3.9,223.1,2976,0
VIAM,1/1/04,598.4283367,380.6837616,62.7,1608.2,2975,313.6153561,197.8668557,15.8,802,2976,57.12217739,32.65334301,2.5,131.8,2976,5
VIAM,2/1/04,357.1223419,319.5626561,0.1,1274.7,2784,186.07773,168.5537331,0,672.9,2784,52.25847698,62.20894025,0,359.7,2784,37
VIAM,3/1/04,143.7106856,201.3680953,0,1023.4,2976,79.096203,114.7985445,0,575.2,2976,63.32288303,87.8512401,0,448.1,2976,975
VIAM,4/1/04,9.822743037,25.18434839,0,206.8,2880,3.826770829,11.00930934,0,129.7,2880,4.017638894,10.90594647,0,114.6,2880,2188
VIAM,5/1/04,0.020732527,0.142121741,0,1.5,2976,0.010752688,0.061945801,0,0.7,2976,0.013071237,0.07572957,0,0.9,2976,1980
VIAM,6/1/04,0.000798611,0.021152641,0,0.7,2880,0.000520833,0.009303996,0,0.2,2880,0,0,0,0,2880,1552
VIAM,7/1/04,0.00124328,0.022643751,0,0.7,2976,0.000907258,0.014523819,0,0.3,2976,0,0,0,0,2976,2346
VIAM,8/1/04,2.580745972,7.634221213,0,54.8,2976,1.168245969,3.336106991,0,28.7,2976,0.381821236,1.852401262,0,27,2976,1876
VIAM,9/1/04,55.00423621,96.39041498,0,511.2,2880,30.99263891,56.04085848,0,292.4,2880,22.88472222,39.81572586,0,182.1,2880,1959
VIAM,10/1/04,279.4104837,276.9793869,0,1009.8,2976,152.8375672,149.2321364,0,551.1,2976,78.08837365,80.58789283,0,384.3,2976,146
VIAM,11/1/04,507.439236,339.9375651,37.6,1521.5,2880,268.182986,181.5988973,11.3,810,2880,77.8716319,56.98377554,3.1,390.7,2880,67
VIAM,12/1/04,565.6031589,345.2869557,48.8,1450.9,2976,290.5190525,185.0086864,20.6,773,2976,52.40692206,31.78785457,3.4,129.7,2976,2
VIAM,1/1/05,473.4959342,329.4259004,44.2,1346.3,2976,247.7888777,177.6005279,16,744,2976,44.03958332,29.96663025,2.8,112.7,2976,5
VIAM,2/1/05,317.9800596,287.9914144,0,1153,2688,158.6218751,149.9515203,0.2,613.6,2688,62.77351191,72.8634653,0.2,358.3,2688,645
VIAM,3/1/05,121.2371302,163.6343289,0,718.3,2976,52.65524192,76.27114073,0,366.3,2976,56.02973797,77.52633842,0,304.9,2976,1953
VIAM,4/1/05,11.40312497,29.00820329,0,232.2,2880,5.58288195,16.17257237,0,148,2880,3.459097217,9.22063921,0,80.8,2880,1767
VIAM,5/1/05,0.019119624,0.127736722,0,1.5,2976,0.015288979,0.078246222,0,0.9,2976,0.016935484,0.115469742,0,1.6,2976,2565
VIAM,6/1/05,0.001736111,0.02733579,0,0.7,2880,0.001875,0.017777474,0,0.3,2880,3.47E-05,0.00186339,0,0.1,2880,2534
VIAM,7/1/05,0.001108871,0.022501845,0,0.7,2976,0.001176075,0.015183845,0,0.4,2976,0,0,0,0,2976,2499
VIAM,8/1/05,2.843548397,9.256434832,0,74.4,2976,1.373286288,4.118897868,0,39.5,2976,0.836088712,2.520304384,0,23.2,2976,1990
VIAM,9/1/05,70.67888884,121.0149627,0,533.6,2880,40.0613889,72.89460022,0,282.5,2880,20.21309029,35.37925699,0,140.2,2880,1046
VIAM,10/1/05,279.0579972,276.9090135,0,941.5,2976,151.9123992,147.8709731,0,487.3,2976,65.06727146,64.71145015,0,239.8,2976,192
VIAM,11/1/05,507.7767362,335.9747136,28.8,1375.9,2880,270.1884026,177.6049407,9.8,716,2880,68.2866667,41.78164723,3.4,188.7,2880,11
VIAM,12/1/05,590.7970093,354.3229199,69,1653.4,2976,299.4645932,178.3450566,21.2,876,2974,56.92746218,31.90663994,4.2,168,2975,4
VIAM,1/1/06,540.0402886,378.1259535,21,1559.8,2976,281.6996975,191.1276198,9.3,775,2976,54.56475132,34.31086444,1.6,135.1,2976,2
VIAM,2/1/06,322.8111604,329.0246909,0,1255.6,2688,171.7146206,167.7500135,0,636.3,2688,65.86413692,63.07552771,0.2,429.6,2688,448
VIAM,3/1/06,101.4139449,166.3402103,0,976,2976,52.03521509,85.74112651,0,487.7,2976,55.85480509,80.32387854,0,362.3,2976,1672
VIAM,4/1/06,6.920520827,14.68421277,0,110.5,2880,2.58979167,5.504559991,0,57.5,2880,4.789652766,14.3961788,0,154.4,2880,2198
VIAM,5/1/06,0.019052419,0.171390487,0,3,2976,0.022379033,0.161265538,0,2.6,2976,0.019724463,0.1481904,0,2.5,2976,2819
VIAM,6/1/06,0,0,0,0,2880,0.000729167,0.010681351,0,0.3,2880,6.94E-05,0.002634774,0,0.1,2880,2777
VIAM,7/1/06,0.000436828,0.014774861,0,0.6,2976,0.003259409,0.033498445,0,0.8,2976,0.001915323,0.020408292,0,0.5,2976,2742
VIAM,8/1/06,1.530880377,4.55002935,0,32.6,2976,0.698185483,2.000442822,0,19.7,2976,1.406552421,4.364024146,0,48,2976,2690
VIAM,9/1/06,45.24336805,79.04329181,0,562,2880,20.18791665,37.89873145,0,291.7,2880,28.78038192,51.40973521,0,293.7,2880,2260
VIAM,10/1/06,285.8044016,293.7775124,0,1138.7,2976,124.0937501,129.9671128,0,553,2976,126.471875,124.4577807,0,467.6,2976,1468
VIAM,11/1/06,570.9765978,387.6991473,22.2,1602.1,2880,272.5077084,185.2705873,9.7,772,2880,234.1452776,153.0543784,8.5,585.3,2880,420
VIAM,12/1/06,662.7212216,399.4481543,96.2,1925.3,2554,330.0410335,195.5281491,23,962,2554,187.5048159,116.5246934,11.5,543,2554,9
VIAM,1/1/07,585.5849124,376.3734057,47.6,1488.5,2976,298.8029907,184.832556,17.4,756,2976,66.03881046,39.46856012,3.1,239.6,2976,0
VIAM,2/1/07,325.9789433,309.1603628,0,1479.6,2688,163.4925225,155.8301663,0,752,2688,58.15859374,63.93165812,0.2,363,2688,320
VIAM,3/1/07,120.3399865,172.4764082,0,725.5,2976,59.13605508,87.51664813,0,352.9,2976,63.39445564,86.38994215,0,377,2976,1453
VIAM,4/1/07,6.463819453,15.72932509,0,126.6,2880,2.551736114,6.911664935,0,58.9,2880,5.358749988,15.39743505,0,131.5,2880,2342
VIAM,5/1/07,0.033501344,0.25826175,0,3.8,2976,0.024630376,0.162195642,0,2.5,2976,0.013944893,0.095743508,0,1.5,2976,2422
VIAM,6/1/07,0,0,0,0,2880,0.00125,0.013381152,0,0.3,2880,0.000104167,0.003226365,0,0.1,2880,2163
VIAM,7/1/07,6.72E-05,0.002591944,0,0.1,2976,0.001848118,0.015116749,0,0.2,2976,0.000336022,0.005787961,0,0.1,2976,2374
VIAM,8/1/07,2.520934141,8.104107605,0,76.1,2976,1.163911293,3.583805044,0,46.7,2976,0.729637098,2.556440943,0,26.4,2976,1664
VIAM,9/1/07,58.43937503,107.9075761,0,524,2880,30.08704855,57.2252459,0,258.8,2880,20.18017362,32.3957139,0,186.7,2880,1714
VIAM,10/1/07,261.6721437,273.0257777,0,1016.1,2976,131.1755712,132.4283505,0,492.8,2976,85.21159279,103.5887064,0,423.7,2976,558
VIAM,11/1/07,515.4659027,354.2280949,33.1,1377.1,2880,258.3801738,173.3328725,9.7,670.4,2880,156.9673266,109.7703273,8.5,468.4,2880,29
VIAM,12/1/07,622.8024198,366.6397511,53.1,1693.5,2976,316.8851813,180.7383254,22.4,843,2976,90.33961693,59.31462478,3.5,368.8,2976,5
VIAM,1/1/08,537.942434,354.2658086,61.6,1553.5,2974,263.8864827,172.3696909,16.1,744,2974,58.03032954,36.30046271,3.1,220.2,2974,65
VIAM,2/1/08,327.8868532,294.5315462,0,1207.9,2784,160.1605962,142.6155397,0,582.5,2784,41.34181034,36.54472299,0,137.7,2784,0
VIAM,3/1/08,113.2379368,158.2656629,0,745.6,2976,57.96024868,82.7022614,0,365,2976,28.93568546,42.86207474,0,210,2976,1408
VIAM,4/1/08,10.81687502,27.57664487,0,238.1,2880,4.391145835,12.19538836,0,114.7,2880,2.294062491,5.969225443,0,48.8,2880,1909
VIAM,5/1/08,0.035786291,0.237620391,0,3.2,2976,0.022849463,0.132647555,0,1.6,2976,0.010215054,0.065822432,0,0.9,2976,2432
VIAM,6/1/08,0,0,0,0,2880,0.001111111,0.011734655,0,0.2,2880,0,0,0,0,2880,2425
VIAM,7/1/08,0.000168011,0.006078368,0,0.3,2976,0.002620968,0.021997376,0,0.4,2976,0.000436828,0.006595953,0,0.1,2976,2514
VIAM,8/1/08,2.976881721,8.984518692,0,58.4,2976,1.223252687,3.384073964,0,29.2,2976,0.635383065,1.747617267,0,15.2,2976,2049
VIAM,9/1/08,66.55628484,108.7760709,0,555.1,2880,33.09447913,56.6183931,0,283.2,2880,13.40833335,22.45323592,0,100.4,2880,1091
VIAM,10/1/08,260.8617273,262.9722439,0,1020.2,2976,125.9669691,125.5923739,0,479.5,2976,67.23528235,71.4491689,0,331.7,2976,154
VIAM,11/1/08,540.1950334,350.6871528,28.8,1338.5,2880,263.7570833,166.729215,10.3,623.6,2880,79.86013887,46.51150769,3.8,202,2880,28
VIAM,12/1/08,676.7312159,365.6755755,71.9,1810,2976,335.8057814,174.4019633,20.6,857,2975,75.43202288,34.0685249,3.9,172.4,2976,2
VIAM,1/1/09,524.9240586,356.9940854,25.3,1616.4,2976,301.57668,210.6930387,12.5,931,2976,48.00913972,30.69297765,1.4,121.2,2976,15
VIAM,2/1/09,362.8744791,319.7647069,0,1144.9,2688,208.4529389,185.0784165,0.2,659.7,2688,92.01941973,103.68862,0.2,393,2688,166
VIAM,3/1/09,136.6342741,181.9074014,0,878.9,2976,86.04502695,114.8965092,0,540.3,2976,56.40843416,76.05909732,0,368.5,2976,713
VIAM,4/1/09,10.47437501,26.45589903,0,204.6,2880,5.599513885,15.83883879,0,139.7,2880,3.836076392,10.50805843,0,86.7,2880,1854
VIAM,5/1/09,0.017170699,0.118211573,0,1.6,2976,0.011424731,0.074724276,0,1,2976,0.018212366,0.125065213,0,1.7,2976,2683
VIAM,6/1/09,0,0,0,0,2880,0.000451389,0.008111185,0,0.2,2880,0,0,0,0,2880,2625
VIAM,7/1/09,0.000739247,0.021051148,0,0.8,2976,0.003494624,0.028186987,0,0.4,2976,0.000168011,0.004096155,0,0.1,2976,2656
VIAM,8/1/09,3.199865597,9.712310489,0,58.7,2976,1.578225804,4.396399169,0,34.3,2976,0.912466402,2.498562117,0,20.3,2976,1873
VIAM,9/1/09,73.6517014,122.3201781,0,519,2880,46.29263889,80.72222637,0,318.5,2880,20.14614581,34.84970014,0,169.6,2880,1110
VIAM,10/1/09,259.9758737,268.9489575,0,983.4,2976,154.498051,160.8263651,0,567.5,2976,100.6875,102.7574947,0,485.4,2976,675
VIAM,11/1/09,515.7570131,356.5629898,22.6,1447.8,2880,286.6889929,202.1989113,10.5,798,2880,155.10875,111.4841256,5.8,483,2880,75
VIAM,12/1/09,589.2358562,365.763731,70.2,1777.9,2973,318.2868191,200.7898013,24.6,972,2974,71.38459985,43.6174407,4.8,183.9,2974,3
VIAM,1/1/10,530.8517816,353.1175554,23.3,1686.7,2976,290.6495971,194.0562592,11.3,915,2976,63.51182801,39.82788789,1.8,184.8,2976,10
VIAM,2/1/10,311.0072549,298.382951,0,1123.4,2688,154.9945314,159.8254317,0.1,599,2688,73.9579985,78.70068044,0.2,416.7,2688,948
VIAM,3/1/10,128.938038,176.3865359,0,758.3,2976,78.51979171,108.3342953,0,424.4,2976,47.73481185,66.45728112,0,274,2976,746
VIAM,4/1/10,12.32069446,31.56502084,0,249.5,2880,6.451388896,18.95206305,0,165.9,2880,4.183506944,11.63530766,0,97.8,2880,2063
VIAM,5/1/10,0.018850806,0.116001259,0,1.5,2976,0.014180108,0.073247824,0,1,2976,0.024731183,0.143520896,0,1.8,2976,2827
VIAM,6/1/10,0,0,0,0,2880,0.000243056,0.004924927,0,0.1,2880,0,0,0,0,2880,2396
VIAM,7/1/10,0.001512097,0.029352655,0,0.7,2976,0.00124328,0.016248076,0,0.4,2976,0,0,0,0,2976,2749
VIAM,8/1/10,2.896639783,9.630267172,0,77.9,2976,1.387130379,4.27936921,0,34.7,2976,0.81391129,2.607406647,0,26.9,2976,1936
VIAM,9/1/10,50.56357652,78.78276668,0,357.3,2880,28.71569447,47.16022731,0,222,2880,27.53187497,50.1992726,0,224.7,2880,1696
VIAM,10/1/10,283.4306122,286.0986552,0,996.7,2976,163.3321573,162.2296625,0,536.6,2976,104.9588038,102.2772343,0,333.7,2976,314
VIAM,11/1/10,550.2711809,363.6055567,33.7,1531.2,2880,315.6997219,207.9971735,11.6,887,2878,93.98013203,55.44854094,4.7,209.4,2879,1114
VIAM,12/1/10,686.8152562,367.7073242,71.5,1679,2976,393.9832662,206.9425268,25.7,969,2976,71.29889113,34.10797968,3.6,191.8,2976,2976
VIAM,1/1/11,488.8918016,342.387813,48.7,1640.1,2976,270.3220095,196.0475328,18.8,933,2976,43.09821909,31.95314922,2.4,147.2,2976,2976
VIAM,2/1/11,329.1319203,307.108526,0.7,1200.1,2688,183.9113838,175.1455734,0.3,671.9,2688,62.94992561,63.15984176,0.2,323.7,2688,2688
VIAM,3/1/11,136.5710352,176.001161,0,758.3,2976,76.86206316,100.0855503,0,421.4,2976,56.5596438,75.19753445,0,314.2,2976,2976
VIAM,4/1/11,8.845486103,23.70064532,0,225.7,2880,4.330868063,12.89408606,0,130.1,2880,4.699548616,12.82783193,0,109.1,2880,2880
VIAM,5/1/11,0.030208333,0.252206579,0,4.3,2976,0.023857527,0.148364888,0,2.2,2976,0.019489248,0.112136808,0,1.4,2976,2976
VIAM,6/1/11,0,0,0,0,2880,0.000833333,0.010509758,0,0.2,2880,0.000173611,0.004163771,0,0.1,2880,2880
VIAM,7/1/11,0,0,0,0,2976,0.001142473,0.013672221,0,0.3,2976,6.72E-05,0.002591944,0,0.1,2976,2976
VIAM,8/1/11,2.599764783,8.744782626,0,78.9,2976,1.599025539,5.323723578,0,58.7,2976,1.067237904,3.568382911,0,39.4,2976,2976
VIAM,9/1/11,63.74968764,108.4080664,0,533.2,2880,37.00156251,65.3850603,0,299.2,2880,24.80718749,42.71345225,0,189.9,2880,2880
VIAM,10/1/11,265.6498661,269.612533,0,1101.2,2976,153.8541667,155.89207,0,627.9,2976,99.87432804,100.4980427,0,388.6,2976,2976
VIAM,11/1/11,507.7473968,344.8835835,12.5,1355.6,2880,293.064757,198.4832416,5.7,758,2880,123.5540973,85.03919606,3.1,380.1,2880,2880
VIAM,12/1/11,636.1275207,366.3984823,87.2,1706.7,2976,356.9529234,206.3822037,24.1,968,2976,80.29371631,50.96522471,4.1,304.6,2976,2976
VIAM,1/1/12,585.9311219,371.6551065,42.5,1684.5,2969,312.3108491,201.9228036,15.3,952,2968,56.9430593,38.66833298,2.4,158.1,2968,2969
VIAM,2/1/12,358.3927084,314.3328146,0,1140.1,2784,186.5267601,169.7385287,0.2,621.8,2784,80.69554603,97.20885024,0.1,463.7,2784,2784